{"data":{"norad_id":68637,"epoch":"2026-09-20T04:09:13.763808Z","epoch_age_seconds":91454,"freshness":"FRESH","line1":"1 68637U 26075B   26263.17307597  .00000059  00000+0  72219-4 0  9996","line2":"2 68637  88.9865 311.3416 0002245  96.9494 263.1913 13.51021837 22616","mean_motion":13.51021837,"eccentricity":0.0002245,"inclination_deg":88.9865,"raan_deg":311.3416,"arg_perigee_deg":96.9494,"mean_anomaly_deg":263.1913,"bstar":7.2219e-5,"rev_number":2261,"period_min":106.58598999388,"perigee_km":1066.8295722511,"apogee_km":1070.173112867,"semimajor_km":7446.638342559,"source":"CELESTRAK","updated_at":"2026-09-20T09:00:24.367603Z"}}